Aeroporto :
LOGIN :

Iscrizione | Disclaimer

   EN    FR    IT 

 










Sommario :    VFR   VFR Marginale   IFR   IFR Intensivo   IFR Molto Intensivo
Visibilità : 
Base nubi : 
>= 8 km
>= 3000ft
5 / 8 km
1000 / 3000 ft
1500m / 5 km
500 / 1000 ft
800 / 1500m
200 / 500 ft
< 800m
< 200 ft
Simboli :   Temporali  Nebbia  Neve Forte  Precipitazioni Forti  Vento > 20 kt
SIGMETs :   Varie  Temporali  Ghiacco  Turbolenza  Onda orograficha  Ceneri Vulcaniche







- Altitudine del aeroporto : 308 ft
- Codice IATA : MHG


EDFM - Mannheim-City

ULTIMO METAR :
  • 141950Z VRB02KT 9999 OVC032 01/M05 Q1024

METARs OBSOLETI :
  • 141920Z VRB02KT 9999 OVC032 01/M05 Q1024
  • 141850Z VRB02KT 9999 OVC032 01/M05 Q1024
  • 141820Z 07003KT 9999 OVC032 01/M05 Q1023
  • 141750Z 09003KT 9999 OVC032 01/M05 Q1023
  • 141720Z 10004KT 9999 OVC032 01/M05 Q1023

TAF TAF EDFM
Valido dal 14 a 18 ore il 14 a 21 ore UTC


141700Z 1418/1421 05004KT 9999 OVC030
Nessun NOTAM noto per questo aeroporto.



MetMap, La meteo Aeronautica in un colpo d'occhio ! - Copyright ORBIFLY Dicembre 2007 - Disclaimer

ORBIFLY MET'MAP TEAM :

Programmazione e sviluppo : Alexandra Zaïnal
Concezione e sviluppo : Baudouin d'Aumeries
Co-Programmazione e sviluppo : Marc-Olivier Méhu
Supporto tecnico e logistico : Manuel Goepfert
Aiuto per la traduzione : Arnaldo La Scala

Contatto : metmap@orbifly.com




FONTI E CREDITI :

   NOAA